sat.trackr.live / text

‹ back to catalog

STARLINK-34597

NORAD 64738 · 2025-144Q

PAYLOAD ACTIVE UNKNOWN

§ Identity

Operator
Country
US
Launch date
2025-07-02
Launch site
AFETR
Launch vehicle
Mass (kg)
RCS (m²)

Purposes: comms

External: N2YO · Heavens-Above · Gunter

§ Orbital elements

Epoch: 2026-05-25T02:12:23.958144Z

Period
94.10 min
Inclination
53.1580°
Eccentricity
0.0001427
Mean motion
15.30225661 rev/d
Perigee alt
474.2 km
Apogee alt
476.1 km
Semi-major
6,853.3 km
B*
3.8822e-4
RAAN
185.8596°
Arg perigee
53.9791°
Mean anomaly
306.1342°
Rev number
5,139

§ Raw data

STARLINK-345971 64738U 25144Q   26145.09194396  .00011165  00000+0  38822-3 0  99922 64738  53.1580 185.8596 0001427  53.9791 306.1342 15.30225661 51390

JSON: /api/v1/satellites/64738 · /tle

For live sub-satellite position, see the globe view (requires WebGL).

§ Visibility from observer

Set your observer location to see the next 7 days of passes ≥ 10°. The values pass through the URL so the page stays shareable.

No JS? Fill the form by hand. The geolocation button needs JavaScript.